Time,TemperatureF,DewpointF,PressureIn,WindDirection,WindDirectionDegrees,WindSpeedMPH,WindSpeedGustMPH,Humidity,HourlyPrecipIn,Conditions,Clouds,dailyrainin,SolarRadiationWatts/m^2,SoftwareType,DateUTC
2013-07-18 00:01:00,58.0,58.0,-100.00,ENE,61,1.0,2.0,100,0.00,,,0.25,0.000000,,2013-07-18 07:01:00,
2013-07-18 04:32:00,53.0,53.0,-100.00,NE,55,2.0,3.0,100,-99.99,,,0.25,0.000000,,2013-07-18 11:32:00,
2013-07-18 04:43:00,53.0,53.0,-100.00,NE,55,2.0,3.0,100,-99.99,,,0.25,0.000000,,2013-07-18 11:43:00,
2013-07-18 04:52:00,53.0,53.0,-100.00,NE,55,2.0,3.0,100,-99.99,,,0.25,0.000000,,2013-07-18 11:52:00,
2013-07-18 05:01:00,53.0,53.0,-100.00,NE,55,2.0,3.0,100,-99.99,,,0.25,0.000000,,2013-07-18 12:01:00,
2013-07-18 05:33:00,52.0,52.0,-100.00,NE,47,2.0,2.0,100,0.00,,,0.25,0.000000,,2013-07-18 12:33:00,
2013-07-18 05:42:00,52.0,52.0,-100.00,NE,47,2.0,2.0,100,0.00,,,0.25,0.000000,,2013-07-18 12:42:00,
2013-07-18 05:52:00,52.0,52.0,-100.00,NE,47,2.0,2.0,100,0.00,,,0.25,0.000000,,2013-07-18 12:52:00,
2013-07-18 06:01:00,52.0,52.0,-100.00,NE,47,2.0,2.0,100,0.00,,,0.25,0.000000,,2013-07-18 13:01:00,
2013-07-18 06:33:00,53.0,53.0,-100.00,NE,43,1.0,2.0,100,0.00,,,0.25,13.000000,,2013-07-18 13:33:00,
2013-07-18 06:43:00,53.0,53.0,-100.00,NE,43,1.0,2.0,100,0.00,,,0.25,13.000000,,2013-07-18 13:43:00,
2013-07-18 06:53:00,53.0,53.0,-100.00,NE,43,1.0,2.0,100,0.00,,,0.25,13.000000,,2013-07-18 13:53:00,
2013-07-18 07:02:00,53.0,53.0,-100.00,NE,43,1.0,2.0,100,0.00,,,0.25,13.000000,,2013-07-18 14:02:00,
2013-07-18 07:33:00,62.0,60.0,-100.00,ENE,63,2.0,3.0,92,0.00,,,0.25,53.000000,,2013-07-18 14:33:00,
2013-07-18 07:43:00,62.0,60.0,-100.00,ENE,63,2.0,3.0,92,0.00,,,0.25,53.000000,,2013-07-18 14:43:00,
2013-07-18 07:53:00,62.0,60.0,-100.00,ENE,63,2.0,3.0,92,0.00,,,0.25,53.000000,,2013-07-18 14:53:00,
2013-07-18 08:01:00,62.0,60.0,-100.00,ENE,63,2.0,3.0,92,0.00,,,0.25,53.000000,,2013-07-18 15:01:00,
2013-07-18 08:43:00,66.0,61.0,-100.00,NNE,19,1.0,6.0,83,0.00,,,0.25,270.000000,,2013-07-18 15:43:00,
2013-07-18 08:53:00,66.0,61.0,-100.00,NNE,19,1.0,6.0,83,0.00,,,0.25,270.000000,,2013-07-18 15:53:00,
2013-07-18 09:01:00,66.0,61.0,-100.00,NNE,19,1.0,6.0,83,0.00,,,0.25,270.000000,,2013-07-18 16:01:00,
2013-07-18 09:32:00,73.0,59.0,-100.00,ENE,57,2.0,5.0,61,0.00,,,0.25,531.000000,,2013-07-18 16:32:00,
2013-07-18 09:42:00,73.0,59.0,-100.00,ENE,57,2.0,5.0,61,0.00,,,0.25,531.000000,,2013-07-18 16:42:00,
2013-07-18 09:52:00,73.0,59.0,-100.00,ENE,57,2.0,5.0,61,0.00,,,0.25,531.000000,,2013-07-18 16:52:00,
2013-07-18 10:01:00,73.0,59.0,-100.00,ENE,57,2.0,5.0,61,0.00,,,0.25,531.000000,,2013-07-18 17:01:00,
2013-07-18 10:43:00,76.0,55.0,-100.00,NNW,347,3.0,8.0,49,0.00,,,0.25,774.000000,,2013-07-18 17:43:00,
2013-07-18 10:52:00,76.0,55.0,-100.00,NNW,347,3.0,8.0,49,0.00,,,0.25,774.000000,,2013-07-18 17:52:00,
2013-07-18 11:01:00,76.0,55.0,-100.00,NNW,347,3.0,8.0,49,0.00,,,0.25,774.000000,,2013-07-18 18:01:00,
2013-07-18 11:32:00,78.0,56.0,-100.00,ENE,61,6.0,11.0,47,0.00,,,0.25,882.000000,,2013-07-18 18:32:00,
2013-07-18 11:43:00,78.0,56.0,-100.00,ENE,61,6.0,11.0,47,0.00,,,0.25,882.000000,,2013-07-18 18:43:00,
2013-07-18 11:52:00,78.0,56.0,-100.00,ENE,61,6.0,11.0,47,0.00,,,0.25,882.000000,,2013-07-18 18:52:00,
2013-07-18 12:01:00,78.0,56.0,-100.00,ENE,61,6.0,11.0,47,0.00,,,0.25,882.000000,,2013-07-18 19:01:00,
2013-07-18 12:43:00,77.0,53.0,-100.00,ENE,71,7.0,13.0,43,0.00,,,0.25,668.000000,,2013-07-18 19:43:00,
2013-07-18 12:53:00,77.0,53.0,-100.00,ENE,71,7.0,13.0,43,0.00,,,0.25,668.000000,,2013-07-18 19:53:00,
2013-07-18 13:01:00,77.0,53.0,-100.00,ENE,71,7.0,13.0,43,0.00,,,0.25,668.000000,,2013-07-18 20:01:00,
2013-07-18 13:43:00,80.0,56.0,-100.00,East,90,10.0,15.0,44,0.00,,,-99.99,745.000000,,2013-07-18 20:43:00,
2013-07-18 13:52:00,80.0,56.0,-100.00,East,90,10.0,15.0,44,0.00,,,-99.99,745.000000,,2013-07-18 20:52:00,
2013-07-18 14:01:00,80.0,56.0,-100.00,East,90,10.0,15.0,44,0.00,,,-99.99,745.000000,,2013-07-18 21:01:00,
2013-07-18 14:32:00,79.0,53.0,-100.00,ENE,60,9.0,19.0,40,0.00,,,0.16,434.000000,,2013-07-18 21:32:00,
2013-07-18 14:43:00,79.0,53.0,-100.00,ENE,60,9.0,19.0,40,0.00,,,0.16,434.000000,,2013-07-18 21:43:00,
2013-07-18 14:52:00,79.0,53.0,-100.00,ENE,60,9.0,19.0,40,0.00,,,0.16,434.000000,,2013-07-18 21:52:00,
2013-07-18 15:01:00,79.0,53.0,-100.00,ENE,60,9.0,19.0,40,0.00,,,0.16,434.000000,,2013-07-18 22:01:00,
2013-07-18 15:43:00,73.0,56.0,-100.00,WSW,245,7.0,18.0,55,0.00,,,0.16,418.000000,,2013-07-18 22:43:00,
2013-07-18 15:53:00,73.0,56.0,-100.00,WSW,245,7.0,18.0,55,0.00,,,0.16,418.000000,,2013-07-18 22:53:00,
2013-07-18 16:01:00,73.0,56.0,-100.00,WSW,245,7.0,18.0,55,0.00,,,0.16,418.000000,,2013-07-18 23:01:00,
2013-07-18 16:32:00,77.0,59.0,-100.00,WNW,284,5.0,14.0,53,0.00,,,0.00,592.000000,,2013-07-18 23:32:00,
2013-07-18 16:42:00,77.0,59.0,-100.00,WNW,284,5.0,14.0,53,0.00,,,0.00,592.000000,,2013-07-18 23:42:00,
2013-07-18 16:52:00,77.0,59.0,-100.00,WNW,284,5.0,14.0,53,0.00,,,0.00,592.000000,,2013-07-18 23:52:00,
2013-07-18 17:01:00,77.0,59.0,-100.00,WNW,284,5.0,14.0,53,0.00,,,0.00,592.000000,,2013-07-19 00:01:00,
2013-07-18 17:43:00,73.0,55.0,-100.00,WNW,283,9.0,16.0,54,0.00,,,0.00,584.000000,,2013-07-19 00:43:00,
2013-07-18 17:52:00,73.0,55.0,-100.00,WNW,283,9.0,16.0,54,0.00,,,0.00,584.000000,,2013-07-19 00:52:00,
2013-07-18 18:01:00,73.0,55.0,-100.00,WNW,283,9.0,16.0,54,0.00,,,0.00,584.000000,,2013-07-19 01:01:00,
2013-07-18 18:32:00,69.0,56.0,-100.00,WNW,303,5.0,16.0,63,0.00,,,-99.99,168.000000,,2013-07-19 01:32:00,
2013-07-18 18:42:00,69.0,56.0,-100.00,WNW,303,5.0,16.0,63,0.00,,,-99.99,168.000000,,2013-07-19 01:42:00,
2013-07-18 18:52:00,69.0,56.0,-100.00,WNW,303,5.0,16.0,63,0.00,,,-99.99,168.000000,,2013-07-19 01:52:00,
2013-07-18 19:01:00,69.0,56.0,-100.00,WNW,303,5.0,16.0,63,0.00,,,-99.99,168.000000,,2013-07-19 02:01:00,
2013-07-18 19:32:00,67.0,53.0,-100.00,NW,320,7.0,15.0,61,0.00,,,0.00,25.000000,,2013-07-19 02:32:00,
2013-07-18 19:42:00,67.0,53.0,-100.00,NW,320,7.0,15.0,61,0.00,,,0.00,25.000000,,2013-07-19 02:42:00,
2013-07-18 19:52:00,67.0,53.0,-100.00,NW,320,7.0,15.0,61,0.00,,,0.00,25.000000,,2013-07-19 02:52:00,
2013-07-18 20:01:00,67.0,53.0,-100.00,NW,320,7.0,15.0,61,0.00,,,0.00,25.000000,,2013-07-19 03:01:00,
2013-07-18 20:32:00,66.0,53.0,-100.00,WNW,284,7.0,13.0,62,0.00,,,0.00,5.000000,,2013-07-19 03:32:00,
2013-07-18 20:43:00,66.0,53.0,-100.00,WNW,284,7.0,13.0,62,0.00,,,0.00,5.000000,,2013-07-19 03:43:00,
2013-07-18 20:52:00,66.0,53.0,-100.00,WNW,284,7.0,13.0,62,0.00,,,0.00,5.000000,,2013-07-19 03:52:00,
2013-07-18 21:02:00,66.0,53.0,-100.00,WNW,284,7.0,13.0,62,0.00,,,0.00,5.000000,,2013-07-19 04:02:00,
2013-07-18 21:44:00,65.0,53.0,-100.00,WNW,288,6.0,16.0,65,0.00,,,0.00,0.000000,,2013-07-19 04:44:00,
2013-07-18 21:52:00,65.0,53.0,-100.00,WNW,288,6.0,16.0,65,0.00,,,0.00,0.000000,,2013-07-19 04:52:00,
2013-07-18 22:02:00,65.0,53.0,-100.00,WNW,288,6.0,16.0,65,0.00,,,0.00,0.000000,,2013-07-19 05:02:00,
2013-07-18 22:32:00,63.0,53.0,-100.00,NNE,32,1.0,11.0,71,0.00,,,0.00,0.000000,,2013-07-19 05:32:00,
2013-07-18 22:43:00,63.0,53.0,-100.00,NNE,32,1.0,11.0,71,0.00,,,0.00,0.000000,,2013-07-19 05:43:00,
2013-07-18 22:53:00,63.0,53.0,-100.00,NNE,32,1.0,11.0,71,0.00,,,0.00,0.000000,,2013-07-19 05:53:00,
2013-07-18 23:01:00,63.0,53.0,-100.00,NNE,32,1.0,11.0,71,0.00,,,0.00,0.000000,,2013-07-19 06:01:00,
2013-07-18 23:43:00,60.0,54.0,-100.00,West,268,1.0,6.0,80,0.00,,,0.00,0.000000,,2013-07-19 06:43:00,
2013-07-18 23:52:00,60.0,54.0,-100.00,West,268,1.0,6.0,80,0.00,,,0.00,0.000000,,2013-07-19 06:52:00,